Flag for United Kingdom Weather past 2 weeks in Sutton Coldfield, England, United Kingdom

52 °F

Light rain. Broken clouds.

Feels Like: 47 °F
Forecast: 39 / 54 °F
Wind: 15 mph from Southwest

Location: Birmingham / Airport

Current Time: Nov 30, 2015 at 11:57:41 AM

Latest Report: Nov 30, 2015 at 11:20 AM

Visibility: 5 mi

Pressure: 29.80 "Hg

Humidity: 88%

Dew point: 48 °F

Location of Sutton ColdfieldLocation

Historic Weather in Sutton Coldfield — Graph


Sutton Coldfield temperature yesterday

Maximum temperature yesterday: 54 °F (at 11:50 AM)
Minimum temperature yesterday: 45 °F (at 10:50 PM)
Average temperature yesterday: 49 °F

Past Weeks' High & Low Weather Summary

High59 °F (Nov 15, 10:20 AM)100% (Nov 16, 10:20 PM)30.24 "Hg (Nov 16, 10:20 PM)
Low28 °F (Nov 23, 7:20 AM)52% (Nov 21, 1:20 PM)29.39 "Hg (Nov 17, 1:50 PM)
Average46 °F84%29.82 "Hg
* Reported Nov 15 10:20 AM — Nov 30 10:50 AM, Sutton Coldfield, Weather by CustomWeather, © 2015

Note: Actual official high and low records may vary slightly from our data, if they occured in-between our weather recording intervals... More about our weather records


Sutton Coldfield weather history for previous 24 hours

Time TempWeatherWind HumidityBarometerVisibility
10:50 AM
Mon, Nov 30
52 °FLight rain. Mostly cloudy.15 mph88%29.80 "Hg5 mi
10:20 AM52 °FLight rain. Mostly cloudy.13 mph88%29.83 "HgN/A
9:50 AM52 °FPartly sunny.12 mph82%29.83 "HgN/A
9:20 AM50 °FBroken clouds.8 mph94%29.83 "HgN/A
8:50 AM48 °FLight rain. Partly sunny.8 mph94%29.86 "HgN/A
8:20 AM48 °FMostly cloudy.8 mph94%29.86 "HgN/A
7:50 AM46 °FPartly cloudy.8 mph93%29.89 "HgN/A
7:20 AM45 °FLight rain. Partly cloudy.8 mph93%29.89 "HgN/A
6:50 AM43 °FPartly cloudy.9 mph100%29.89 "HgN/A
6:20 AM43 °FLight rain. Passing clouds.7 mph93%29.92 "HgN/A
5:50 AM43 °FLight rain. Partly cloudy.9 mph93%29.95 "HgN/A
5:20 AM43 °FLight rain. Passing clouds.6 mph87%29.95 "HgN/A
4:50 AM43 °FLight rain. Mostly cloudy.7 mph87%29.98 "HgN/A
4:20 AM45 °FLight rain. Mostly cloudy.8 mph76%29.98 "HgN/A
3:50 AM45 °FLight rain. Passing clouds.9 mph71%29.98 "HgN/A
3:20 AM45 °FPassing clouds.8 mph71%29.98 "HgN/A
2:50 AM45 °FPassing clouds.7 mph66%29.98 "HgN/A
2:20 AM43 °FPassing clouds.7 mph71%29.98 "HgN/A
12:50 AM45 °FClear.10 mph66%29.98 "Hg10 mi
12:20 AM45 °FClear.13 mph66%29.98 "Hg10 mi
11:50 PM
Sun, Nov 29
45 °FClear.13 mph66%29.98 "Hg10 mi
10:50 PM45 °FClear.9 mph71%29.95 "Hg10 mi
10:20 PM46 °FPassing clouds.9 mph66%29.92 "HgN/A
9:50 PM46 °FClear.10 mph66%29.89 "Hg10 mi
9:20 PM46 °FPassing clouds.7 mph71%29.89 "HgN/A
8:50 PM46 °FClear.13 mph71%29.86 "Hg10 mi
8:20 PM48 °FPassing clouds.16 mph66%29.86 "HgN/A
7:50 PM48 °FPassing clouds.12 mph71%29.83 "HgN/A
7:20 PM48 °FPassing clouds.14 mph71%29.80 "HgN/A
6:50 PM48 °FPassing clouds.15 mph76%29.77 "HgN/A
6:20 PM48 °FPassing clouds.17 mph76%29.74 "HgN/A
5:50 PM50 °FPassing clouds.18 mph71%29.74 "HgN/A
5:20 PM50 °FPassing clouds.16 mph76%29.71 "HgN/A
4:50 PM50 °FLight rain. Passing clouds.17 mph82%29.68 "HgN/A
4:20 PM50 °FLight rain. Partly cloudy.16 mph88%29.65 "HgN/A
3:50 PM52 °FLight rain. Broken clouds.20 mph82%29.65 "Hg6 mi
3:20 PM52 °FBroken clouds.17 mph88%29.62 "HgN/A
2:50 PM52 °FRain. Broken clouds.13 mph94%29.62 "Hg3 mi
2:20 PM52 °FLight rain. Broken clouds.14 mph88%29.59 "Hg4 mi
1:50 PM54 °FLight rain. Cloudy.17 mph82%29.59 "Hg4 mi
1:20 PM54 °FLight rain. Broken clouds.16 mph77%29.59 "Hg4 mi
12:50 PM54 °FCloudy.16 mph77%29.59 "HgN/A
12:20 PM54 °FScattered showers. Partly sunny.17 mph72%29.59 "HgN/A
11:50 AM54 °FScattered showers. Partly sunny.17 mph72%29.59 "HgN/A
11:20 AM52 °FScattered showers. Partly sunny.14 mph77%29.59 "HgN/A
Weather by CustomWeather, © 2015

See weather overviewHow to use our weather pages